www.pogodaiklimat.ru

Погода и климат >> Архив погоды >> Катар >> Abu Samra


ПОГОДА в Abu Samra

  • Прогноз погоды в Abu Samra
  • Монитор погоды в Abu Samra
  • Климат города

АРХИВ ПОГОДЫ в Abu Samra

Время (UTC), дата Ветер
(напр.,м/с)
 
Видим.   Явления Облачность Т
(С)
Тd
(С)
f
(%)
Тe
(С)
Тes
(С)
Комфортность P
(гПа)
Po
(гПа)
Тmin
(С)
Tmax
(С)
R
(мм)
R24
(мм)
S
(см)
09 11.08 СЗ 10 19 км н/о +36.1 +27.7 62 +56 +56 опасность
перегрева
1000.5 999.9
12 11.08 СЗ 14 20 км н/о +37.6 +27.6 57 +57 +57 опасность
перегрева
998.5 997.9
15 11.08 СЗ 13 20 км н/о +36.1 +26.1 57 +52 +52 опасность
перегрева
998.8 998.2
18 11.08 СЗ 10 20 км н/о +34.7 +27.4 66 +54 +54 опасность
перегрева
1000.6 1000.0 +37.8
21 11.08 ЮЗ 3 19 км н/о +31.2 +26.3 75 +47 +47 опасность
перегрева
1000.1 999.5
00 12.08 З 6 20 км н/о +30.6 +21.5 58 +39 +39 очень
душно
998.9 998.3
03 12.08 З 10 20 км н/о +34.1 +16.8 36 +37 +37 очень
душно
999.5 998.9
06 12.08 СЗ 11 20 км н/о +37.0 +21.5 41 +45 +45 опасность
перегрева
1000.0 999.4 +27.9
09 12.08 СЗ 11 20 км н/о +37.4 +24.1 47 +49 +49 опасность
перегрева
999.1 998.5
12 12.08 С 14 20 км н/о +38.0 +23.6 44 +49 +49 опасность
перегрева
997.2 996.6
15 12.08 СЗ 14 20 км н/о +36.4 +24.8 51 +49 +49 опасность
перегрева
996.4 995.8
18 12.08 СЗ 7 20 км н/о +34.2 +26.5 64 +51 +51 опасность
перегрева
997.0 996.4 +39.0
21 12.08 З 3 20 км н/о +32.2 +21.4 53 +40 +40 очень
душно
995.8 995.2
00 13.08 З 11 20 км н/о +34.7 +16.2 33 +37 +37 очень
душно
994.9 994.3
03 13.08 СЗ 14 20 км н/о +34.2 +16.7 35 +37 +37 очень
душно
995.6 995.0
06 13.08 СЗ 15 20 км н/о +36.5 +21.1 41 +44 +44 опасность
перегрева
996.7 996.1 +32.2
09 13.08 СЗ 14 20 км н/о +38.2 +22.0 39 +46 +46 опасность
перегрева
995.6 995.0
12 13.08 СЗ 20 20 км н/о +37.5 +22.6 42 +46 +46 опасность
перегрева
994.2 993.6
15 13.08 СЗ 11 20 км н/о +36.1 +23.8 49 +47 +47 опасность
перегрева
994.1 993.5
18 13.08 СЗ 7 20 км н/о +33.8 +27.2 69 +53 +53 опасность
перегрева
995.4 994.8 +38.6
21 13.08 З 4 20 км н/о +33.5 +23.6 56 +44 +44 опасность
перегрева
995.3 994.7
00 14.08 З 14 8000 м н/о +35.2 +17.1 34 +38 +38 очень
душно
995.4 994.8
03 14.08 СЗ 16 8000 м н/о +34.2 +15.6 33 +36 +36 душно 996.7 996.1
06 14.08 СЗ 16 12 км н/о +35.5 +20.5 42 +42 +42 опасность
перегрева
997.7 997.1 +33.0
09 14.08 СЗ 20 20 км н/о +36.3 +23.2 47 +46 +46 опасность
перегрева
996.9 996.3
12 14.08 СЗ 19 20 км н/о +37.4 +22.7 43 +47 +47 опасность
перегрева
995.6 995.0
15 14.08 С 18 14 км н/о +36.6 +20.1 38 +42 +42 опасность
перегрева
996.0 995.4
18 14.08 З 7 20 км н/о +33.4 +23.9 58 +45 +45 опасность
перегрева
998.3 997.7 +38.3
21 14.08 З 4 20 км н/о +29.9 +21.9 62 +38 +38 очень
душно
998.1 997.5
00 15.08 З 7 20 км н/о +30.8 +18.5 48 +36 +36 очень
душно
997.5 996.9
03 15.08 СЗ 13 20 км н/о +32.7 +21.2 51 +40 +40 очень
душно
998.8 998.2
06 15.08 СЗ 11 20 км н/о +35.0 +26.0 60 +51 +51 опасность
перегрева
999.3 998.7 +28.5
09 15.08 СЗ 14 20 км н/о +37.2 +24.7 49 +50 +50 опасность
перегрева
998.8 998.2
12 15.08 СЗ 13 20 км н/о +37.6 +22.5 42 +46 +46 опасность
перегрева
997.8 997.2
15 15.08 СЗ 10 20 км н/о +34.8 +26.3 61 +51 +51 опасность
перегрева
997.8 997.2
18 15.08 СЗ 7 20 км н/о +33.8 +23.3 54 +44 +44 опасность
перегрева
999.7 999.1 +37.8
21 15.08 З 5 20 км н/о +32.2 +26.5 72 +49 +49 опасность
перегрева
999.5 998.9
00 16.08 З 7 20 км н/о +31.2 +21.3 56 +39 +39 очень
душно
999.0 998.4
03 16.08 ЮЗ 6 20 км н/о +26.8 +16.2 52 +30 +30 душно 1000.4 999.8
06 16.08 СЗ 4 20 км н/о +35.7 +18.8 37 +40 +40 очень
душно
1001.1 1000.5 +26.6
09 16.08 С 9 20 км н/о +38.0 +20.6 37 +44 +44 опасность
перегрева
1000.2 999.6
12 16.08 С 12 20 км н/о +38.4 +21.2 37 +45 +45 опасность
перегрева
998.4 997.8
15 16.08 СЗ 5 20 км н/о +35.3 +26.3 60 +52 +52 опасность
перегрева
998.4 997.8
18 16.08 СЗ 5 20 км н/о +33.4 +26.4 67 +50 +50 опасность
перегрева
1000.2 999.6 +38.8
21 16.08 СЗ 7 20 км н/о +32.8 +23.8 59 +44 +44 опасность
перегрева
999.4 998.8
00 17.08 З 4 20 км н/о +31.3 +21.8 57 +40 +40 очень
душно
999.1 998.5
03 17.08 ЮЗ 3 20 км н/о +27.4 +14.1 44 +30 +30 жарко 999.6 999.0
06 17.08 С 3 20 км н/о +35.8 +19.3 38 +41 +41 опасность
перегрева
1000.3 999.7 +26.5
09 17.08 СЗ 6 20 км н/о +38.3 +20.9 37 +45 +45 опасность
перегрева
999.2 998.6
12 17.08 СЗ 13 20 км н/о +37.8 +21.3 39 +45 +45 опасность
перегрева
997.4 996.8
15 17.08 СЗ 5 20 км н/о +35.9 +25.5 55 +50 +50 опасность
перегрева
996.8 996.2
18 17.08 СЗ 3 20 км н/о +33.9 +25.5 62 +49 +49 опасность
перегрева
997.9 997.3 +38.8
21 17.08 З 2 20 км н/о +32.1 +23.5 60 +43 +43 опасность
перегрева
996.9 996.3
00 18.08 З 8 20 км н/о +27.5 +17.8 55 +32 +32 очень
душно
996.6 996.0
03 18.08 ЮЗ 7 20 км н/о +29.3 +12.7 36 +30 +30 жарко 998.0 997.4

 

Местоположение метеостанции Abu Samra (Катар): широта 24.75 долгота 50.82 высота над уровнем моря 8 м.

В архиве по умолчанию представлена погода в Abu Samra за последнюю неделю. Архивные данные за месяц целиком и за предыдущие месяцы, начиная с января 2011 года, Вы можете получить, выбрав интересующий диапазон дат из раскрывающегося списка и нажав кнопку "Ввод!".


*Определитесь, кто Вы:
робот инопланетянин человек

Внимание! Время в таблицах - всемирное. Для получения местного времени необходимо прибавить поправку, которая в Abu Samra равна 4 ч.

Смотрите также архив погоды в соседних городах и на ближайших метеорологических станциях:

Погода в Dukhan (Катар) (73 км)
Погода в Doha (Катар) (94 км)
Погода в Hamad Int Airport (Катар) (98 км)
Погода в Al Ahsa (Саудовская Аравия) (148 км)
Погода в Bahrain (Бахрейн) (170 км)
Погода в Dhahran (Саудовская Аравия) (181 км)
Погода в King Fahd Int Airport (Саудовская Аравия) (214 км)
Погода в Bandar Deyr (Иран) (360 км)
Погода в Abu Dhabi Bateen Airport (ОАЭ) (370 км)
Погода в Kish Island (Иран) (372 км)

Пояснения к столбцам:

Ветер - указаны скорость ветра в м/с - средняя за 10 мин, порывы в срок и между сроками (в фигурных скобках) и направление, откуда дует ветер: С - северный, СВ - северо-восточный, В - восточный, ЮВ - юго-восточный, Ю - южный, ЮЗ - юго-западный, З - западный, СЗ - северо-западный.
Видимость - горизонтальная дальность видимости в метрах или километрах. При видимости от 1 до 10 км при отсутствии осадков обычно наблюдается дымка, при ухудшении видимости до 1 км и менее - туман. В сухую погоду видимость может ухудшаться дымом, пылью или мглою.
Явления - указаны атмосферные явления, наблюдавшиеся в срок или в последний час перед сроком; фигурными скобками обозначены явления, наблюдавшиеся между сроками (за 1-3 часа до срока); квадратными скобками обозначены град или гололедные отложения с указанием их диаметра в мм.
Облачность - указаны через наклонную черту общая и нижняя облачность в баллах и высота нижней границы облаков в метрах; квадратными скобками обозначены формы облаков: Ci - перистые, Cs - перисто-слоистые, Cc - перисто-кучевые, Ac - высококучевые, As - высокослоистые, Sc - слоисто-кучевые, Ns - слоисто-дождевые, Cu - кучевые, Cb - кучево-дождевые. Подробнее классификацию облаков см. в Атласе облаков (PDF).
T - Температура воздуха - температура, измеренная на высоте 2 м над землей.
Td - Температура точки росы - температура, при понижении до которой содержащийся в воздухе водяной пар достигнет насыщения.
f - Относительная влажность воздуха - влажноcть воздуха, измеренная на высоте 2 м над землей.
Te - Эффективная температура - температура, которую ощущает одетый по сезону человек в тени. Характеристика душности погоды. При расчете учитывается влияние влажности воздуха и скорости ветра на теплоощущения человека.
Tes - Эффективная температура на солнце - температура, которую ощущает человек, с поправкой на солнечный нагрев. Характеристика знойности погоды. Зависит от высоты солнца над горизонтом, облачности и скорости ветра. Ночью, в пасмурную погоду, а также при ветре 12 м/с и более поправка равна нулю.
P - Атмосферное давление - приведенное к уровню моря атмосферное давление.
Po - Атмосферное давление - измеренное на уровне метеостанции атмосферное давление.
Tmin - Минимальная температура - минимум температуры воздуха на высоте 2 м над землей.
Tmax - Максимальная температура - максимум температуры воздуха на высоте 2 м над землей.
R - Количество осадков - Количество выпавших осадков за период времени, мм. При наведении курсора мыши на число - период времени, за который выпало указанное количество осадков.
R24 - Количество осадков - Количество выпавших осадков за 24 часа, мм.
S - Снежный покров - Высота снежного покрова, см. При наведении курсора мыши на число - состояние снежного покрова и степень покрытия местности в баллах.